Location: Saalfelden+am+Steinernen+Meer
(47.4274°N, 12.8411°E)
Time: 10:12:34
(UTC+02:00)

N. Korean satellite - Visible Passes

Search period start: 22 September 2017 00:00
Search period end: 02 October 2017 00:00
Orbit: 461 x 516 km, 97.2° (Epoch: 21 September)

Date Brightness Start Highest point End Pass type
(mag) Time Alt. Az. Time Alt. Az. Time Alt. Az.
22 Sep 9.2 19:53:22 10° SSW 19:56:34 26° W 19:59:46 10° NW visible
23 Sep 7.9 19:29:38 10° S 19:33:15 48° W 19:36:53 10° NNW visible
25 Sep 9.9 20:18:29 10° SW 20:20:38 15° W 20:22:46 10° NW visible
26 Sep 9.2 19:54:06 10° SSW 19:57:14 25° W 20:00:22 10° NW visible
27 Sep 7.9 19:30:20 10° S 19:33:55 46° W 19:37:30 10° NNW visible
29 Sep 9.9 20:19:14 10° SW 20:21:16 14° W 20:23:18 10° WNW visible
30 Sep 9.2 19:54:47 10° SSW 19:57:52 25° W 20:00:56 10° NW visible
01 Oct 7.9 19:30:59 10° S 19:34:32 45° W 19:38:03 10° NNW visible
